This demonstration page uses our WeatherBlox Daily Observations layout. Learn more.

38.88101, -77.10428

Hourly Observations for June 7, 2016

Temp ( °F °C ) Dew Point ( °F °C ) Humidity (%) Winds ( mph kmh ) Pressure ( in mb ) Visibility ( mi km ) Precip ( " mm )
12:52 am 00:52 Cloudy 76 24.4 68 20 77 77 SW 8 13 29.66 1005 10 16.0934 0 0
1:52 am 01:52 Mostly Cloudy 75 23.9 68 20 79 79 SW 10 17 29.65 1004 10 16.0934 0 0
2:52 am 02:52 Mostly Cloudy 74 23.3 68 20 82 82 SSW 9 15 29.63 1003 10 16.0934 0 0
3:52 am 03:52 Partly Cloudy 72 22.2 68 20 87 87 SSW 7 11 29.62 1003 10 16.0934 0 0
4:52 am 04:52 Partly Cloudy 71 21.7 68 20 90 90 SSW 7 11 29.61 1003 10 16.0934 0 0
5:52 am 05:52 Partly Cloudy 70 21.1 68 20 93 93 VRB 3 6 29.62 1003 10 16.0934 0 0
6:52 am 06:52 Mostly Sunny 71 21.7 68 20 90 90 SSW 6 9 29.62 1003 10 16.0934 0 0
7:52 am 07:52 Partly Cloudy 74 23.3 67 19.4 79 79 SSW 6 9 29.62 1003 10 16.0934 0 0
8:52 am 08:52 Mostly Sunny 74 23.3 67 19.4 79 79 S 7 11 29.61 1003 10 16.0934 0 0
9:52 am 09:52 Mostly Sunny 78 25.6 67 19.4 69 69 S 7 11 29.6 1002 10 16.0934 0 0
10:52 am 10:52 Mostly Sunny 82 27.8 61 16.1 49 49 VRB 5 7 29.59 1002 10 16.0934 0 0
11:52 am 11:52 Partly Cloudy 84 28.9 62 16.7 48 48 S 3 6 29.57 1001 10 16.0934 0 0
12:52 pm 12:52 Mostly Cloudy 82 27.8 59 15 46 46 VRB 6 9 29.56 1001 10 16.0934 0 0
1:52 pm 13:52 Mostly Cloudy 86 30 59 15 40 40 Calm 29.54 1000 10 16.0934 0 0
2:52 pm 14:52 Mostly Cloudy 86 30 57 13.9 37 37 NW 9 15 29.52 1000 10 16.0934 0 0
3:52 pm 15:52 Mostly Cloudy 81 27.2 55 12.8 41 41 NNW 25 41 29.52 1000 10 16.0934 0 0
4:21 pm 16:21 Mostly Cloudy with Light Rain 79 26.1 54 12.2 42 42 NNW 20 31 29.53 1000 10 16.0934 0 0.0254
4:52 pm 16:52 Mostly Cloudy 80 26.7 56 13.3 44 44 NW 12 19 29.53 1000 10 16.0934 0 0.0254
5:52 pm 17:52 Partly Cloudy 82 28 52 11 35 35 NNW 17 28 29.53 1000 10 16.0934 0 0
6:52 pm 18:52 Partly Cloudy 80 26.7 53 11.7 39 39 NNW 15 24 29.56 1001 10 16.0934 0 0
7:52 pm 19:52 Partly Cloudy 79 26.1 50 10 36 36 NW 17 28 29.59 1002 10 16.0934 0 0
8:52 pm 20:52 Mostly Clear 75 23.9 52 11.1 45 45 NNW 14 22 29.64 1004 10 16.0934 0 0
9:52 pm 21:52 Mostly Clear 73 22.8 51 10.6 46 46 NNW 16 26 29.67 1005 10 16.0934 0 0
10:52 pm 22:52 Mostly Clear 66 18.9 50 10 56 56 NNW 13 20 29.69 1005 10 16.0934 0 0
11:52 pm 23:52 Clear 69 20.6 50 10 51 51 NW 9 15 29.71 1006 10 16.0934 0 0

Powered by AerisWeather